Weather in Oktyabr'skiy

Russia / Republic of Bashkortostan     55°36′48″N   57°29′14″E
temp.,
°C
wind,
m/s
gust,
m/s
humid.,
%
clouds,
%
prec.,
mm/h
press.,
hPa
HPBL,
m
18 may, tue
tue1823:00+18sw5145994 0.1 1017339
02:00+17w396394 0.0 1017246
05:00+14wsw118662 1.2 101711
08:00+18wsw116765 0.3 1016174
11:00+24nw35440 0.3 10161275
14:00+26nw46325 0.0 10162146
17:00+25nw46330 0.0 10152209
20:00+20nne385260 0.0 1017474
19 may, wed
wed1923:00+15ne411700 0.0 1019484
02:00+13ene511770 0.0 1020591
05:00+11e411860 0.0 1021474
08:00+13e510660 0.0 1022677
11:00+17e57451 0.0 1022883
14:00+20e57395 0.0 10221228
17:00+21e4536100 0.0 10221322
20:00+18ene25555 0.0 1022120
20 may, thu
thu2023:00+12ese25695 0.0 102387
02:00+11se1171100 0.0 102416
05:00+9ese11765 0.0 102410
08:00+15se23546 0.0 1024318
11:00+20ese223860 0.0 10231269
14:00+23ese223069 0.0 10221634
17:00+23e22307 0.0 10211711
20:00+18ene22525 0.0 102039
21 may, fri
fri2123:00+14se11560 0.0 102011
02:00+13sse11611 0.0 102010
05:00+11se116116 0.0 102011
08:00+17se254733 0.0 1020248
11:00+22sse463111 0.0 10191663
14:00+25se472694 0.0 10172624
17:00+25s3831100 0.0 10152706
20:00+19wsw596694 0.1 1016481
22 may, sat
sat2223:00+15ssw31082100 0.2 1017283
02:00+13ssw298884 0.0 1017211
05:00+12ssw310945 0.1 1018266
08:00+16ssw48730 0.0 1018504
11:00+20sw575835 0.0 10181403
14:00+21wsw5751100 0.1 10181823
17:00+22wsw574295 0.1 10192219
20:00+19w266299 0.0 1019243